Rbgn^[z[y[W
メイン
   新天体発見情報
     Comet P/2023 M4 (ATLAS)
投稿するにはまず登録を

フラット表示 前のトピック | 次のトピック
投稿者 スレッド
佐藤裕久
投稿日時: 2023-7-31 12:32
モデレータ
登録日: 2005-6-12
居住地: 日本
投稿: 2608
オンライン
Comet P/2023 M4 (ATLAS)

6月21日UT、南アフリカ Sutherlandにある小惑星地球衝突最終警報システム Asteroid Terrestrial-
impact Last Alert System (ATLAS)調査プログラムのコースに0.5-m 反射望遠鏡で得た、CCD
画像から彗星を発見した。
小惑星センターのPCCP webpageに公表後、R. Weryk (西オンタリオ大学,物理および天文学科)に
よると、6月18.6日UT、HaleakalaにあるPan-STARRS1の1.8-m Ritchey-Chretien 反射望遠鏡で得た
発見前の45-秒4枚のスタック w-バンドサーベイ画像では、1".1のシーイングで、17.1等の非常に
集光した1".3 (半値全幅:FWHM)の頭部が見えたが尾はない)や。佐藤英貴氏(東京都文京区,6月22.39日、
120-秒露出6枚のスタック, 0.43-m f/6.8 アストログラフ, Utah Desert Remote 天文台, Beryl 
Junction近郊, ユタ州, 米国, 遠隔操作:強く集光した15" の丸いコマが見えるが尾はない。7".6の
円形範囲で測定した光度は16.9等であった。


彗星機能の報告は次のとおり、

OC   Date        Reporter           Coma    Tail    PA          Exposures
W84  2021-03-17  K. Ly              4"        6"    277-317       1x90s
W84  2021-03-23  K. Ly              2".5     11"    299           1x90s
W84  2021-05-12  K. Ly              2".5      
W84  2021-06-01  K. Ly              2"        5"    315           1x30s
U94  2023-06-22  H. Sato           15"                            6x120s
W62  2023-07-11  J. J. Maikner     20"       60"    246
Q62  2023-07-12  T. Prystavski     18"                            5x240s
G40  2023-07-20  A. J. Evans        4".5

発見位置は次のとおり、

     2023 UT             R.A. (2000) Decl.       Mag.
     June 21.06121   21 46 58.50   -10 26 42.7   16.8
          21.06392   21 46 58.46   -10 26 42.5   16.8
          21.06799   21 46 58.42   -10 26 42.2   16.8
          21.07298   21 46 58.38   -10 26 42.0   16.8

MPCの楕円軌道要素、位置推算表は次のとおり、

Orbital elements:
    P/2023 M4 (ATLAS)                                                           
Epoch 2023 Sept. 13.0 TT = JDT 2460200.5                                        
T 2022 Apr. 15.07458 TT                                 Rudenko                 
q   3.9295680            (2000.0)            P               Q                  
n   0.07741380     Peri.  320.68866     -0.22023095     +0.96822865             
a   5.4524346      Node   296.29608     -0.85835744     -0.25004837             
e   0.2793003      Incl.    7.59259     -0.46337979     +0.00301473             
P  12.7                                                                         
From 450 observations 2021 Mar. 17-2023 July 21, mean residual 0".3.            
                                                                                
Ephemeris:
Date    TT    R. A. (2000) Decl.     Delta      r    Elong.  Phase   m1
2023 06 22    21 46 52.4 -10 25 41   3.7138  4.3716   124.6    11.0  16.8
...
2023 07 07    21 43 37.7 -10 17 38   3.5756  4.3989   139.5     8.6  16.7
...
2023 07 15    21 40 43.9 -10 19 38   3.5202  4.4138   147.8     7.0  16.7
...
2023 07 21    21 38 06.5 -10 23 44   3.4885  4.4249   154.1     5.8  16.7
2023 07 22    21 37 38.4 -10 24 36   3.4841  4.4268   155.2     5.5  16.7
2023 07 23    21 37 09.7 -10 25 32   3.4800  4.4287   156.2     5.3  16.7
...
2023 07 29    21 34 08.6 -10 32 07   3.4609  4.4400   162.5     3.9  16.7
...
2023 08 06    21 29 49.1 -10 43 08   3.4508  4.4552   170.8     2.1  16.7
...
2023 08 21    21 21 28.2 -11 07 45   3.4820  4.4839   170.9     2.0  16.7

(MPEC 2023-O51、CBET 5281)

フラット表示 前のトピック | 次のトピック

題名 投稿者 日時
 » Comet P/2023 M4 (ATLAS) 佐藤裕久 2023-7-31 12:32

投稿するにはまず登録を
 
© 1999 Tsutomu Seki.